This is the latest recevied weather packets stored in our database for station/object HG6IQI-10. If no packets are shown the sender has not sent any weather packets the latest 10 day(s).
| Time | Temp. | Humidity | Pressure | Rain* | Wind** | Luminosity | Snow |
|---|---|---|---|---|---|---|---|
| 1777947503 | 3.89° C | 87% | 1015.7 hPa | - | - | - | - |
| 1777946603 | 3.89° C | 87% | 1015.9 hPa | - | - | - | - |
| 1777945703 | 3.89° C | 86% | 1015.8 hPa | - | - | - | - |
| 1777944802 | 3.89° C | 85% | 1015.8 hPa | - | - | - | - |
| 1777943902 | 3.89° C | 84% | 1015.8 hPa | - | - | - | - |
| 1777943002 | 4.44° C | 82% | 1016 hPa | - | - | - | - |
| 1777942102 | 4.44° C | 80% | 1016 hPa | - | - | - | - |
| 1777941202 | 5° C | 79% | 1016 hPa | - | - | - | - |
| 1777940301 | 5° C | 79% | 1016.1 hPa | - | - | - | - |
| 1777939401 | 5° C | 80% | 1016.3 hPa | - | - | - | - |
| 1777938501 | 5.56° C | 78% | 1016.4 hPa | - | - | - | - |
| 1777937601 | 5.56° C | 76% | 1016.4 hPa | - | - | - | - |
| 1777936701 | 6.11° C | 75% | 1016.5 hPa | - | - | - | - |
| 1777935800 | 6.11° C | 74% | 1016.6 hPa | - | - | - | - |
| 1777934900 | 6.67° C | 73% | 1016.6 hPa | - | - | - | - |
| 1777934000 | 6.67° C | 72% | 1016.7 hPa | - | - | - | - |
| 1777932202 | 7.22° C | 70% | 1016.7 hPa | - | - | - | - |
| 1777931302 | 7.22° C | 69% | 1016.8 hPa | - | - | - | - |
| 1777930402 | 7.78° C | 68% | 1016.7 hPa | - | - | - | - |
| 1777929502 | 7.78° C | 66% | 1016.6 hPa | - | - | - | - |
| 1777928601 | 8.33° C | 64% | 1016.6 hPa | - | - | - | - |
| 1777927701 | 8.89° C | 63% | 1016.7 hPa | - | - | - | - |
| 1777926801 | 8.89° C | 63% | 1016.7 hPa | - | - | - | - |
| 1777925901 | 9.44° C | 61% | 1016.7 hPa | - | - | - | - |
| 1777925001 | 10° C | 59% | 1016.7 hPa | - | - | - | - |
* Rain since midnight (hover to see other rain measurements)
** Current wind speed in m/s (hover to see current wind gust speed)